Torna al catalogo

STARLINK-30496

AttivoComunicazioniVLEO
NORAD 57919·PAYLOAD·🇺🇸 United States

Lanciato Sep 24, 2023 da Cape Canaveral Space Force Station

Loading…

Prossimi Passaggi (prossime 24 ore)

TLE

AggiornatoSource: CelesTrak SupGP

Epoca: Sep 15, 2026, 01:51 UTC

1 57919C 23147G   26258.07756944  .00037775  00000+0  13680-2 0  2589
2 57919  43.0027 335.6509 0001667 264.3884  49.9945 15.27563924    10

Traccia STARLINK-30496 in tempo reale con AllMySat

Download on the App Store